Darstellungsparameter: Aktuell verwendete Einstellungen:
Skalierung der Graphiken ... ?
xyx+y,   Skalierungsfaktor:      Skalierung: Modus: x, Faktor: 1
Darstellungszeitraum ... ?
Vom - - bis: - -   Zeitraum: 08.11.2008 - 10.11.2008
Min/Max/Avg-Anzeige ... ?
Zeige MMA aktuell
Zeige MMA Monat
Zeige MMA alles
Zeige --A aktuell
Zeige --A Monat
Zeige --A alles
Keine MMA-Anzeige
MMA:
Average (ber die Originaldaten)
MMA-Basis: 17.04.2019 - 19.05.2019
Quicknavigation für Darstellung... ?
Tage:      1T, 2T, 3T, 5T -1T -2T -3T -5T +1T +2T +3T +5T
Wochen: 1W, 2W, 3W -1W -2W -3W +1W +2W +3W
Monate: 1M, 3M, 6M -1M -3M -6M +1M +3M +6M
Jahre:    1J, 3J, 5J, 10J -1J -3J -5J -10J +1J +3J +5J +10J
Nutze für die Darstellung ... ?
Originaldaten oder Mittelwerte auf ...
Stundenbasis Tagesbasis Wochenbasis
Monatsbasis Jahresbasis      Datenbasis: Original-Daten
Darstellen als:
Statistik (Auto) Statistik J:M      Darstellung:
Zur Graphik,    zurück zur Übersicht aller Sensoren.
 
Tabellarische Datenbersicht: ?
 
Sensor: Nr:Datum:Temp:Abs-Feuchte:Windchill:Wind:
Aussen-T/F 1 08-11-2008 00:06:40 7.3 C 7.19 g/m*3 7.3 C 0 km/h
2 08-11-2008 00:31:40 6.9 C 7.08 g/m*3 6.9 C 0 km/h
3 08-11-2008 00:56:40 7.1 C 7.18 g/m*3 7.1 C 0 km/h
4 08-11-2008 01:21:40 7 C 7.13 g/m*3 7 C 0 km/h
5 08-11-2008 01:46:40 7.2 C 7.3 g/m*3 7.2 C 0 km/h
6 08-11-2008 02:11:40 7.3 C 7.35 g/m*3 7.3 C 0 km/h
7 08-11-2008 02:36:40 7.5 C 7.44 g/m*3 7.5 C 0 km/h
8 08-11-2008 03:01:40 7.8 C 7.59 g/m*3 7.8 C 0 km/h
9 08-11-2008 03:26:40 7.9 C 7.56 g/m*3 7.9 C 0 km/h
10 08-11-2008 03:51:40 8.1 C 7.57 g/m*3 8.1 C 0 km/h
11 08-11-2008 04:16:40 8.2 C 7.62 g/m*3 8.2 C 0 km/h
12 08-11-2008 04:41:40 8.3 C 7.67 g/m*3 8.3 C 0 km/h
13 08-11-2008 05:06:40 8.3 C 7.59 g/m*3 8.3 C 0 km/h
14 08-11-2008 05:31:40 8 C 7.44 g/m*3 8 C 0 km/h
15 08-11-2008 05:56:40 8.6 C 7.82 g/m*3 8.6 C 0 km/h
16 08-11-2008 06:21:40 8.6 C 7.65 g/m*3 8.6 C 0 km/h
17 08-11-2008 06:46:40 8.5 C 7.6 g/m*3 8.5 C 0 km/h
18 08-11-2008 07:11:40 8.5 C 7.77 g/m*3 8.5 C 0 km/h
19 08-11-2008 07:36:41 8 C 7.52 g/m*3 8 C 0 km/h
20 08-11-2008 08:01:41 7.9 C 7.64 g/m*3 7.9 C 0 km/h
21 08-11-2008 08:26:41 7.3 C 7.27 g/m*3 7.3 C 0 km/h
22 08-11-2008 08:51:41 7.2 C 7.3 g/m*3 7.2 C 0 km/h
23 08-11-2008 09:16:41 7.6 C 7.57 g/m*3 7.6 C 0 km/h
24 08-11-2008 09:41:41 8.2 C 7.87 g/m*3 8.2 C 0 km/h
25 08-11-2008 10:06:41 8.7 C 8.13 g/m*3 8.7 C 0 km/h
Sensor: Nr:Datum:Temp:Abs-Feuchte:Windchill:Wind:
Aussen-T/F 26 08-11-2008 10:31:41 8.9 C 7.88 g/m*3 8.9 C 0 km/h
27 08-11-2008 10:56:41 9.3 C 7.28 g/m*3 9.3 C 0 km/h
28 08-11-2008 11:21:41 9.7 C 6.36 g/m*3 9.7 C 0 km/h
29 08-11-2008 11:46:41 10.3 C 6.03 g/m*3 10.3 C 0 km/h
30 08-11-2008 12:11:41 10.9 C 5.97 g/m*3 10.9 C 0 km/h
31 08-11-2008 12:36:41 11.7 C 5.86 g/m*3 11.7 C 0 km/h
32 08-11-2008 13:01:41 12.2 C 5.4 g/m*3 12.2 C 0 km/h
33 08-11-2008 13:26:41 12.4 C 5.14 g/m*3 12.4 C 0 km/h
34 08-11-2008 13:51:01 12 C 5.33 g/m*3 12 C 0 km/h
35 08-11-2008 14:16:01 11.9 C 5.51 g/m*3 11.9 C 0 km/h
36 08-11-2008 14:41:01 12 C 5.44 g/m*3 12 C 0 km/h
37 08-11-2008 15:06:02 11.8 C 5.79 g/m*3 11.8 C 0 km/h
38 08-11-2008 15:31:02 12 C 5.86 g/m*3 12 C 0 km/h
39 08-11-2008 15:56:02 11.2 C 5.98 g/m*3 11.2 C 0 km/h
40 08-11-2008 16:21:02 10.2 C 5.8 g/m*3 10.2 C 0 km/h
41 08-11-2008 16:46:02 9.5 C 6.01 g/m*3 9.5 C 0 km/h
42 08-11-2008 17:11:02 8.8 C 6.09 g/m*3 8.8 C 0 km/h
43 08-11-2008 17:36:02 8.2 C 6.03 g/m*3 8.2 C 0 km/h
44 08-11-2008 18:01:02 7.7 C 6.08 g/m*3 7.7 C 0 km/h
45 08-11-2008 18:26:01 7.4 C 6.04 g/m*3 7.4 C 0 km/h
46 08-11-2008 18:51:01 7.2 C 6.12 g/m*3 7.2 C 0 km/h
47 08-11-2008 19:16:02 6.8 C 6.12 g/m*3 6.8 C 0 km/h
48 08-11-2008 19:41:02 6.5 C 6.15 g/m*3 6.5 C 0 km/h
49 08-11-2008 20:06:02 6.1 C 5.99 g/m*3 6.1 C 0 km/h
50 08-11-2008 20:31:02 5.8 C 6.02 g/m*3 5.8 C 0 km/h
Sensor: Nr:Datum:Temp:Abs-Feuchte:Windchill:Wind:
Aussen-T/F 51 08-11-2008 20:56:02 5.6 C 6.08 g/m*3 5.6 C 0 km/h
52 08-11-2008 21:21:02 5.3 C 5.96 g/m*3 5.3 C 0 km/h
53 08-11-2008 21:46:02 5.2 C 6.06 g/m*3 5.2 C 0 km/h
54 08-11-2008 22:11:03 5.1 C 6.02 g/m*3 5.1 C 0 km/h
55 08-11-2008 22:36:03 4.7 C 6 g/m*3 4.7 C 0 km/h
56 08-11-2008 23:01:02 4.9 C 6.14 g/m*3 4.9 C 0 km/h
57 08-11-2008 23:26:02 5.3 C 6.38 g/m*3 5.3 C 0 km/h
58 08-11-2008 23:50:02 5.8 C 6.66 g/m*3 5.8 C 0 km/h
59 09-11-2008 00:02:03 6.4 C 6.85 g/m*3 6.4 C 0 km/h
60 09-11-2008 00:14:03 6.7 C 6.84 g/m*3 6.7 C 0 km/h
61 09-11-2008 00:26:03 6.7 C 6.76 g/m*3 6.7 C 0 km/h
62 09-11-2008 00:38:03 7 C 6.74 g/m*3 7 C 0 km/h
63 09-11-2008 00:50:02 7 C 6.59 g/m*3 7 C 0 km/h
64 09-11-2008 01:02:03 6.6 C 6.42 g/m*3 6.6 C 0 km/h
65 09-11-2008 01:14:03 6.7 C 6.53 g/m*3 6.7 C 0 km/h
66 09-11-2008 01:26:02 6.5 C 6.37 g/m*3 6.5 C 0 km/h
67 09-11-2008 01:38:03 6.5 C 6.45 g/m*3 6.5 C 0 km/h
68 09-11-2008 01:50:02 6.4 C 6.41 g/m*3 6.4 C 0 km/h
69 09-11-2008 02:02:01 7.1 C 6.63 g/m*3 7.1 C 0 km/h
70 09-11-2008 02:14:01 7.5 C 6.56 g/m*3 7.5 C 0 km/h
71 09-11-2008 02:26:02 7.3 C 6.4 g/m*3 7.3 C 0 km/h
72 09-11-2008 02:38:01 7.6 C 6.53 g/m*3 7.6 C 0 km/h
73 09-11-2008 02:50:01 7.5 C 6.32 g/m*3 7.5 C 0 km/h
74 09-11-2008 03:02:01 7.7 C 6.49 g/m*3 7.7 C 0 km/h
75 09-11-2008 03:14:02 8 C 6.45 g/m*3 8 C 0 km/h
Sensor: Nr:Datum:Temp:Abs-Feuchte:Windchill:Wind:
Aussen-T/F 76 09-11-2008 03:26:02 8 C 6.45 g/m*3 8 C 0 km/h
77 09-11-2008 03:38:01 8.2 C 6.53 g/m*3 8.2 C 0 km/h
78 09-11-2008 03:50:01 8.8 C 6.61 g/m*3 8.8 C 0 km/h
79 09-11-2008 04:02:01 9.3 C 6.56 g/m*3 9.3 C 0 km/h
80 09-11-2008 04:14:01 9.4 C 6.51 g/m*3 9.4 C 0 km/h
81 09-11-2008 04:26:01 9.6 C 6.5 g/m*3 9.6 C 0 km/h
82 09-11-2008 04:38:01 9.3 C 6.47 g/m*3 9.3 C 0 km/h
83 09-11-2008 04:50:02 9.3 C 6.56 g/m*3 9.3 C 0 km/h
84 09-11-2008 05:02:01 9.2 C 6.52 g/m*3 9.2 C 0 km/h
85 09-11-2008 05:14:01 9.6 C 6.6 g/m*3 9.6 C 0 km/h
86 09-11-2008 05:26:02 9.7 C 6.64 g/m*3 9.7 C 0 km/h
87 09-11-2008 05:38:01 9.7 C 6.64 g/m*3 9.7 C 0 km/h
88 09-11-2008 05:50:02 9.6 C 6.6 g/m*3 9.6 C 0 km/h
89 09-11-2008 06:02:01 9.6 C 6.69 g/m*3 9.6 C 0 km/h
90 09-11-2008 06:14:01 9.6 C 6.6 g/m*3 9.6 C 0 km/h
91 09-11-2008 06:26:02 9.8 C 6.68 g/m*3 9.8 C 0 km/h
92 09-11-2008 06:38:01 9.7 C 6.64 g/m*3 9.7 C 0 km/h
93 09-11-2008 06:50:02 9.7 C 6.64 g/m*3 9.7 C 0 km/h
94 09-11-2008 07:02:01 9.9 C 6.82 g/m*3 9.9 C 0 km/h
95 09-11-2008 07:14:01 10 C 6.77 g/m*3 10 C 0 km/h
96 09-11-2008 07:26:02 9.8 C 6.87 g/m*3 9.8 C 0 km/h
97 09-11-2008 07:38:01 9.4 C 7.15 g/m*3 9.4 C 0 km/h
98 09-11-2008 07:50:01 9.2 C 7.41 g/m*3 9.2 C 0 km/h
99 09-11-2008 08:02:01 9.3 C 7.64 g/m*3 9.3 C 0 km/h
100 09-11-2008 08:14:01 9.1 C 7.72 g/m*3 9.1 C 0 km/h
Sensor: Nr:Datum:Temp:Abs-Feuchte:Windchill:Wind:
Aussen-T/F 101 09-11-2008 08:26:01 9.3 C 7.82 g/m*3 9.3 C 0 km/h
102 09-11-2008 08:38:01 9.4 C 7.96 g/m*3 9.4 C 0 km/h
103 09-11-2008 08:50:01 9.4 C 7.96 g/m*3 9.4 C 0 km/h
104 09-11-2008 09:02:02 9.6 C 8.15 g/m*3 9.6 C 0 km/h
105 09-11-2008 09:14:02 9.6 C 8.15 g/m*3 9.6 C 0 km/h
106 09-11-2008 09:26:01 9.7 C 8.2 g/m*3 9.7 C 0 km/h
107 09-11-2008 09:38:01 9.7 C 8.2 g/m*3 9.7 C 0 km/h
108 09-11-2008 09:50:01 9.8 C 8.35 g/m*3 9.8 C 0 km/h
109 09-11-2008 10:02:02 9.7 C 8.3 g/m*3 9.7 C 0 km/h
110 09-11-2008 10:14:02 9.7 C 8.3 g/m*3 9.7 C 0 km/h
111 09-11-2008 10:26:01 9.7 C 8.39 g/m*3 9.7 C 0 km/h
112 09-11-2008 10:38:02 9.8 C 8.44 g/m*3 9.8 C 0 km/h
113 09-11-2008 10:50:01 9.8 C 8.54 g/m*3 9.8 C 0 km/h
114 09-11-2008 11:02:02 9.8 C 8.54 g/m*3 9.8 C 0 km/h
115 09-11-2008 11:14:02 9.9 C 8.59 g/m*3 9.9 C 0 km/h
116 09-11-2008 11:26:01 10.1 C 8.7 g/m*3 10.1 C 0 km/h
117 09-11-2008 11:38:02 10.3 C 8.81 g/m*3 10.3 C 0 km/h
118 09-11-2008 11:50:02 10.3 C 8.81 g/m*3 10.3 C 0 km/h
119 09-11-2008 12:02:02 10.4 C 8.87 g/m*3 10.4 C 0 km/h
120 09-11-2008 12:14:02 10.7 C 9.04 g/m*3 10.7 C 0 km/h
121 09-11-2008 12:26:02 11 C 9.11 g/m*3 11 C 0 km/h
122 09-11-2008 12:38:02 10.8 C 8.99 g/m*3 10.8 C 0 km/h
123 09-11-2008 12:50:02 10.9 C 9.05 g/m*3 10.9 C 0 km/h
124 09-11-2008 13:02:02 10.6 C 8.69 g/m*3 10.6 C 0 km/h
125 09-11-2008 13:14:02 10.5 C 8.44 g/m*3 10.5 C 0 km/h
Sensor: Nr:Datum:Temp:Abs-Feuchte:Windchill:Wind:
Aussen-T/F 126 09-11-2008 13:26:02 10.6 C 8.39 g/m*3 10.6 C 0 km/h
127 09-11-2008 13:38:02 10.3 C 8.24 g/m*3 10.3 C 0 km/h
128 09-11-2008 13:50:02 9.8 C 7.61 g/m*3 9.8 C 0 km/h
129 09-11-2008 14:02:02 9.5 C 7.1 g/m*3 9.5 C 0 km/h
130 09-11-2008 14:14:02 9.7 C 7.19 g/m*3 9.7 C 0 km/h
131 09-11-2008 14:26:01 9.5 C 7.28 g/m*3 9.5 C 0 km/h
132 09-11-2008 14:38:02 9.6 C 7.51 g/m*3 9.6 C 0 km/h
133 09-11-2008 14:50:01 9.7 C 7.56 g/m*3 9.7 C 0 km/h
134 09-11-2008 15:02:01 9.8 C 7.24 g/m*3 9.8 C 0 km/h
135 09-11-2008 15:14:01 10.1 C 6.9 g/m*3 10.1 C 0 km/h
136 09-11-2008 15:26:02 10 C 6.95 g/m*3 10 C 0 km/h
137 09-11-2008 15:38:02 10.1 C 6.9 g/m*3 10.1 C 0 km/h
138 09-11-2008 15:50:01 9.9 C 7 g/m*3 9.9 C 0 km/h
139 09-11-2008 16:02:03 9.8 C 7.14 g/m*3 9.8 C 0 km/h
140 09-11-2008 16:14:03 9.6 C 7.15 g/m*3 9.6 C 0 km/h
141 09-11-2008 16:26:01 9.4 C 7.15 g/m*3 9.4 C 0 km/h
142 09-11-2008 16:38:02 9.2 C 7.23 g/m*3 9.2 C 0 km/h
143 09-11-2008 16:50:02 9.1 C 7.19 g/m*3 9.1 C 0 km/h
144 09-11-2008 17:02:02 9.1 C 7.19 g/m*3 9.1 C 0 km/h
145 09-11-2008 17:14:02 9 C 7.14 g/m*3 9 C 0 km/h
146 09-11-2008 17:26:02 8.8 C 7.22 g/m*3 8.8 C 0 km/h
147 09-11-2008 17:38:03 8.7 C 7.26 g/m*3 8.7 C 0 km/h
148 09-11-2008 17:50:02 8.7 C 7.26 g/m*3 8.7 C 0 km/h
149 09-11-2008 18:02:02 8.6 C 7.22 g/m*3 8.6 C 0 km/h
150 09-11-2008 18:14:02 8.5 C 7 g/m*3 8.5 C 0 km/h
Sensor: Nr:Datum:Temp:Abs-Feuchte:Windchill:Wind:
Aussen-T/F 151 09-11-2008 18:26:02 8.1 C 6.82 g/m*3 8.1 C 0 km/h
152 09-11-2008 18:38:02 7.9 C 6.82 g/m*3 7.9 C 0 km/h
153 09-11-2008 18:50:01 7.8 C 6.77 g/m*3 7.8 C 0 km/h
154 09-11-2008 19:02:02 7.6 C 6.69 g/m*3 7.6 C 0 km/h
155 09-11-2008 19:14:02 7.4 C 6.68 g/m*3 7.4 C 0 km/h
156 09-11-2008 19:26:03 7.4 C 6.76 g/m*3 7.4 C 0 km/h
157 09-11-2008 19:38:03 7.3 C 6.72 g/m*3 7.3 C 0 km/h
158 09-11-2008 19:50:02 7.4 C 6.84 g/m*3 7.4 C 0 km/h
159 09-11-2008 20:02:02 7.5 C 6.8 g/m*3 7.5 C 0 km/h
160 09-11-2008 20:14:02 7.4 C 6.76 g/m*3 7.4 C 0 km/h
161 09-11-2008 20:26:01 7.6 C 6.93 g/m*3 7.6 C 0 km/h
162 09-11-2008 20:38:02 7.4 C 6.76 g/m*3 7.4 C 0 km/h
163 09-11-2008 20:50:02 7.4 C 6.92 g/m*3 7.4 C 0 km/h
164 09-11-2008 21:02:01 7.6 C 7.01 g/m*3 7.6 C 0 km/h
165 09-11-2008 21:14:01 7.7 C 7.14 g/m*3 7.7 C 0 km/h
166 09-11-2008 21:26:02 7.9 C 7.23 g/m*3 7.9 C 0 km/h
167 09-11-2008 21:38:01 7.9 C 7.23 g/m*3 7.9 C 0 km/h
168 09-11-2008 21:50:02 7.9 C 7.31 g/m*3 7.9 C 0 km/h
169 09-11-2008 22:02:01 7.9 C 7.31 g/m*3 7.9 C 0 km/h
170 09-11-2008 22:14:01 7.8 C 7.35 g/m*3 7.8 C 0 km/h
171 09-11-2008 22:26:02 8 C 7.44 g/m*3 8 C 0 km/h
172 09-11-2008 22:38:01 8.3 C 7.67 g/m*3 8.3 C 0 km/h
173 09-11-2008 22:50:01 8.5 C 7.77 g/m*3 8.5 C 0 km/h
174 09-11-2008 23:02:01 8.5 C 7.77 g/m*3 8.5 C 0 km/h
175 09-11-2008 23:14:01 8.9 C 8.06 g/m*3 8.9 C 0 km/h
Sensor: Nr:Datum:Temp:Abs-Feuchte:Windchill:Wind:
Aussen-T/F 176 09-11-2008 23:26:01 9.3 C 8.27 g/m*3 9.3 C 0 km/h
177 09-11-2008 23:38:01 10.1 C 8.7 g/m*3 10.1 C 0 km/h
178 09-11-2008 23:50:01 11.4 C 9.34 g/m*3 11.4 C 0 km/h
179 10-11-2008 00:02:02 12 C 8.95 g/m*3 12 C 0 km/h
180 10-11-2008 00:14:02 12.1 C 8.69 g/m*3 12.1 C 0 km/h
181 10-11-2008 00:26:02 12.3 C 8.58 g/m*3 12.3 C 0 km/h
182 10-11-2008 00:38:02 12.3 C 8.58 g/m*3 12.3 C 0 km/h
183 10-11-2008 00:50:01 12.6 C 8.41 g/m*3 12.6 C 0 km/h
184 10-11-2008 01:02:02 12.9 C 8.34 g/m*3 12.9 C 0 km/h
185 10-11-2008 01:14:02 13 C 8.05 g/m*3 13 C 0 km/h
186 10-11-2008 01:26:01 13 C 7.94 g/m*3 13 C 0 km/h
187 10-11-2008 01:38:02 13 C 7.83 g/m*3 13 C 0 km/h
188 10-11-2008 01:50:02 13.1 C 7.53 g/m*3 13.1 C 0 km/h
189 10-11-2008 02:02:01 13 C 7.48 g/m*3 13 C 0 km/h
190 10-11-2008 02:14:01 13 C 7.48 g/m*3 13 C 0 km/h
191 10-11-2008 02:26:02 12.9 C 7.55 g/m*3 12.9 C 0 km/h
192 10-11-2008 02:38:01 12.5 C 7.81 g/m*3 12.5 C 0 km/h
193 10-11-2008 02:51:05 12 C 7.99 g/m*3 12 C 0 km/h
194 10-11-2008 03:03:05 11.8 C 8.21 g/m*3 11.8 C 0 km/h
195 10-11-2008 03:15:05 11.2 C 8.51 g/m*3 11.2 C 0 km/h
196 10-11-2008 03:27:05 11.1 C 8.66 g/m*3 11.1 C 0 km/h
197 10-11-2008 03:39:02 11.3 C 8.67 g/m*3 11.3 C 0 km/h
198 10-11-2008 03:51:02 11.6 C 8.52 g/m*3 11.6 C 0 km/h
199 10-11-2008 04:03:03 11.8 C 8.31 g/m*3 11.8 C 0 km/h
200 10-11-2008 04:15:02 11.9 C 8.26 g/m*3 11.9 C 0 km/h
Sensor: Nr:Datum:Temp:Abs-Feuchte:Windchill:Wind:
Aussen-T/F 201 10-11-2008 04:27:02 12 C 8.21 g/m*3 12 C 0 km/h
202 10-11-2008 04:39:03 12.3 C 8.25 g/m*3 12.3 C 0 km/h
203 10-11-2008 04:51:02 12.5 C 8.14 g/m*3 12.5 C 0 km/h
204 10-11-2008 05:03:02 12.5 C 8.14 g/m*3 12.5 C 0 km/h
205 10-11-2008 05:15:02 12.6 C 8.08 g/m*3 12.6 C 0 km/h
206 10-11-2008 05:27:02 12.8 C 8.06 g/m*3 12.8 C 0 km/h
207 10-11-2008 05:39:02 12.9 C 8 g/m*3 12.9 C 0 km/h
208 10-11-2008 05:51:01 13 C 7.83 g/m*3 13 C 0 km/h
209 10-11-2008 06:03:02 13 C 7.83 g/m*3 13 C 0 km/h
210 10-11-2008 06:15:02 13 C 7.83 g/m*3 13 C 0 km/h
211 10-11-2008 06:27:02 13 C 7.83 g/m*3 13 C 0 km/h
212 10-11-2008 06:39:02 13.1 C 7.76 g/m*3 13.1 C 0 km/h
213 10-11-2008 06:51:02 13 C 7.71 g/m*3 13 C 0 km/h
214 10-11-2008 07:03:02 13.1 C 7.76 g/m*3 13.1 C 0 km/h
215 10-11-2008 07:15:02 13.3 C 7.74 g/m*3 13.3 C 0 km/h
216 10-11-2008 07:27:02 13.2 C 7.69 g/m*3 13.2 C 0 km/h
217 10-11-2008 07:39:02 13.1 C 7.87 g/m*3 13.1 C 0 km/h
218 10-11-2008 07:51:02 12.8 C 8.18 g/m*3 12.8 C 0 km/h
219 10-11-2008 08:03:03 12.7 C 8.24 g/m*3 12.7 C 0 km/h
220 10-11-2008 08:15:02 13 C 8.28 g/m*3 13 C 0 km/h
221 10-11-2008 08:27:02 13 C 8.28 g/m*3 13 C 0 km/h
222 10-11-2008 08:39:03 12.8 C 8.4 g/m*3 12.8 C 0 km/h
223 10-11-2008 08:51:02 13 C 8.39 g/m*3 13 C 0 km/h
224 10-11-2008 09:03:01 13 C 8.28 g/m*3 13 C 0 km/h
225 10-11-2008 09:15:02 13 C 8.28 g/m*3 13 C 0 km/h
Sensor: Nr:Datum:Temp:Abs-Feuchte:Windchill:Wind:
Aussen-T/F 226 10-11-2008 09:27:03 13.2 C 8.27 g/m*3 13.2 C 0 km/h
227 10-11-2008 09:39:01 13.4 C 8.14 g/m*3 13.4 C 0 km/h
228 10-11-2008 09:51:02 13.5 C 8.07 g/m*3 13.5 C 0 km/h
229 10-11-2008 10:03:01 13.7 C 8.05 g/m*3 13.7 C 0 km/h
230 10-11-2008 10:15:02 13.7 C 7.93 g/m*3 13.7 C 0 km/h
231 10-11-2008 10:27:02 13.7 C 7.93 g/m*3 13.7 C 0 km/h
232 10-11-2008 10:39:01 13.8 C 7.98 g/m*3 13.8 C 0 km/h
233 10-11-2008 10:51:01 14 C 7.96 g/m*3 14 C 0 km/h
234 10-11-2008 11:03:01 14 C 8.08 g/m*3 14 C 0 km/h
235 10-11-2008 11:15:01 13.8 C 8.22 g/m*3 13.8 C 0 km/h
236 10-11-2008 11:27:01 14 C 8.2 g/m*3 14 C 0 km/h
237 10-11-2008 11:39:01 14.2 C 8.06 g/m*3 14.2 C 0 km/h
238 10-11-2008 11:51:01 14.4 C 8.03 g/m*3 14.4 C 0 km/h
239 10-11-2008 12:03:02 14.7 C 7.93 g/m*3 14.7 C 0 km/h
240 10-11-2008 12:15:02 15.2 C 7.92 g/m*3 15.2 C 0 km/h
241 10-11-2008 12:27:02 15 C 7.82 g/m*3 15 C 0 km/h
242 10-11-2008 12:39:02 15.1 C 7.87 g/m*3 15.1 C 0 km/h
243 10-11-2008 12:51:02 14.9 C 7.9 g/m*3 14.9 C 0 km/h
244 10-11-2008 13:03:01 14.9 C 7.77 g/m*3 14.9 C 0 km/h
245 10-11-2008 13:15:02 15 C 7.69 g/m*3 15 C 0 km/h
246 10-11-2008 13:27:02 14.7 C 7.81 g/m*3 14.7 C 0 km/h
247 10-11-2008 13:39:02 14.8 C 7.85 g/m*3 14.8 C 0 km/h
248 10-11-2008 13:51:02 14.9 C 7.77 g/m*3 14.9 C 0 km/h
249 10-11-2008 14:03:02 15.3 C 7.84 g/m*3 15.3 C 0 km/h
250 10-11-2008 14:15:02 15.3 C 7.57 g/m*3 15.3 C 0 km/h
Sensor: Nr:Datum:Temp:Abs-Feuchte:Windchill:Wind:
Aussen-T/F 251 10-11-2008 14:27:02 15.1 C 7.74 g/m*3 15.1 C 0 km/h
252 10-11-2008 14:39:02 15 C 7.82 g/m*3 15 C 0 km/h
253 10-11-2008 14:51:02 14.8 C 7.85 g/m*3 14.8 C 0 km/h
254 10-11-2008 15:03:01 14.8 C 7.73 g/m*3 14.8 C 0 km/h
255 10-11-2008 15:15:02 14.8 C 7.73 g/m*3 14.8 C 0 km/h
256 10-11-2008 15:27:03 14.8 C 7.73 g/m*3 14.8 C 0 km/h
257 10-11-2008 15:39:01 14.9 C 7.77 g/m*3 14.9 C 0 km/h
258 10-11-2008 15:51:03 14.8 C 7.73 g/m*3 14.8 C 0 km/h
259 10-11-2008 16:03:02 14.8 C 7.73 g/m*3 14.8 C 0 km/h
260 10-11-2008 16:15:03 14.8 C 7.73 g/m*3 14.8 C 0 km/h
261 10-11-2008 16:27:03 14.7 C 7.81 g/m*3 14.7 C 0 km/h
262 10-11-2008 16:39:02 14.6 C 7.76 g/m*3 14.6 C 0 km/h
263 10-11-2008 16:51:02 14.5 C 7.84 g/m*3 14.5 C 0 km/h
264 10-11-2008 17:03:02 14.5 C 7.71 g/m*3 14.5 C 0 km/h
265 10-11-2008 17:15:02 14.6 C 7.63 g/m*3 14.6 C 0 km/h
266 10-11-2008 17:27:02 14.7 C 7.55 g/m*3 14.7 C 0 km/h
267 10-11-2008 17:39:02 14.7 C 7.55 g/m*3 14.7 C 0 km/h
268 10-11-2008 17:51:01 14.9 C 7.65 g/m*3 14.9 C 0 km/h
269 10-11-2008 18:03:02 15.1 C 7.48 g/m*3 15.1 C 0 km/h
270 10-11-2008 18:15:01 15.2 C 7.4 g/m*3 15.2 C 0 km/h
271 10-11-2008 18:27:01 15.2 C 7.4 g/m*3 15.2 C 0 km/h
272 10-11-2008 18:39:02 14.9 C 7.39 g/m*3 14.9 C 0 km/h
273 10-11-2008 18:51:02 15.1 C 7.22 g/m*3 15.1 C 0 km/h
274 10-11-2008 19:03:03 15.1 C 7.1 g/m*3 15.1 C 0 km/h
275 10-11-2008 19:15:02 15.2 C 7.14 g/m*3 15.2 C 0 km/h
Sensor: Nr:Datum:Temp:Abs-Feuchte:Windchill:Wind:
Aussen-T/F 276 10-11-2008 19:27:02 15 C 7.05 g/m*3 15 C 0 km/h
277 10-11-2008 19:39:03 15.1 C 7.1 g/m*3 15.1 C 0 km/h
278 10-11-2008 19:51:02 15.2 C 7.14 g/m*3 15.2 C 0 km/h
279 10-11-2008 20:03:02 15.1 C 7.22 g/m*3 15.1 C 0 km/h
280 10-11-2008 20:15:02 15.3 C 7.31 g/m*3 15.3 C 0 km/h
281 10-11-2008 20:27:02 15.3 C 7.31 g/m*3 15.3 C 0 km/h
282 10-11-2008 20:39:02 15.3 C 7.31 g/m*3 15.3 C 0 km/h
283 10-11-2008 20:51:02 15.4 C 7.36 g/m*3 15.4 C 0 km/h
284 10-11-2008 21:03:02 15.5 C 7.53 g/m*3 15.5 C 0 km/h
285 10-11-2008 21:15:02 15.5 C 7.53 g/m*3 15.5 C 0 km/h
286 10-11-2008 21:27:02 15.6 C 7.58 g/m*3 15.6 C 0 km/h
287 10-11-2008 21:39:02 15.4 C 7.75 g/m*3 15.4 C 0 km/h
288 10-11-2008 21:51:01 15.2 C 8.05 g/m*3 15.2 C 0 km/h
289 10-11-2008 22:03:02 15.3 C 7.97 g/m*3 15.3 C 0 km/h
290 10-11-2008 22:15:02 15.2 C 8.05 g/m*3 15.2 C 0 km/h
291 10-11-2008 22:27:02 15.5 C 7.93 g/m*3 15.5 C 0 km/h
292 10-11-2008 22:39:02 15.7 C 7.63 g/m*3 15.7 C 0 km/h
293 10-11-2008 22:52:02 15.8 C 7.67 g/m*3 15.8 C 0 km/h
294 10-11-2008 23:04:02 15.8 C 7.54 g/m*3 15.8 C 0 km/h
295 10-11-2008 23:16:02 15.9 C 7.58 g/m*3 15.9 C 0 km/h
296 10-11-2008 23:28:02 15.8 C 7.54 g/m*3 15.8 C 0 km/h
297 10-11-2008 23:40:02 15.8 C 7.54 g/m*3 15.8 C 0 km/h
298 10-11-2008 23:52:02 16 C 7.49 g/m*3 16 C 0 km/h

Legende:
   Min
   Max


Maximal/Minimal-Werte vom 17.04.2019 - 19.05.2019

Sensor Min Max Avg
Temp
(Aussen-T/F)
2.2 °C
13-05-2019  06:50:00
26.6 °C
24-04-2019  17:05:00
11.51 °C

Die Daten stammen von einer Davis Vantage Pro 2 Wetter-Station und werden unter Linux mit der Software wview2wettercgi und aufbereitet. Alle Angaben erfolgen ohne Gewähr für ihre Vollständigkeit oder Richtigkeit.
Kontakt: Rainer Krienke krienke@uni-koblenz.de . Meine Webseiten an der Uni Koblenz oder privat.
Version: $Revision: 0.78 $